Tracking 27420 objects as of 28-May-2023
HD Live streaming from Space Station
objects crossing your sky now

STARLINK-6222

Track STARLINK-6222 now!
10-day predictions
STARLINK-6222 is classified as:


NORAD ID: 56481
Int'l Code: 2023-064AK
Perigee: 364.1 km
Apogee: 368.4 km
Inclination: 70.0 °
Period: 91.7 minutes
Semi major axis: 6737 km
RCS: Unknown
Launch date: May 10, 2023
Source: United States (US)
Launch site: AIR FORCE WESTERN TEST RANGE (AFWTR)
Your satellite tracking list
Your tracking list is empty




NASA's NSSDC Master Catalog

Two Line Element Set (TLE):
1 56481U 23064AK  23148.58334491  .00007745  00000-0  66128-4 0  9994
2 56481  69.9986 195.0837 0003238 271.2304 249.9083 15.69922923  3186
Source of the keplerian elements: AFSPC